Location: Cabo di Oristano
(39.8500°N, 8.4333°E)
Time: 16:59:08
(UTC+00:00)

Cosmos 192 - Pass Details

Date: 31 January 2023
Orbit: 700 x 712 km, 74.0° (Epoch: 31 March)

Event Time Altitude Azimuth Distance (km) Brightness Sun altitude
Rises 05:05:36 0° 204° (SSW) 3,076 7.5 -17.5°
Reaches altitude 10° 05:07:55 10° 207° (SSW) 2,164 6.7 -17.1°
Maximum altitude 05:12:46 67° 290° (WNW) 765 4.2 -16.1°
Drops below altitude 10° 05:17:41 10° 14° (NNE) 2,187 6.9 -15.2°
Sets 05:20:03 0° 17° (NNE) 3,112 7.7 -14.8°
